Powrót do katalogu

PANDORE

AktywnyNaukaSSO
NORAD 63244·PAYLOAD·🇫🇷 France

Wystrzelony Mar 15, 2025 z Vandenberg Space Force Base

Loading…

Następne Przeloty (najbliższe 24 godziny)

TLE

ŚwieżeSource: Space-Track

Epoka: Sep 13, 2026, 16:34 UTC

1 63244U 25052AL  26256.69045255  .00001818  00000-0  16979-3 0  9993
2 63244  97.6761 146.2774 0003253 260.1530  99.9324 14.95383772 81833

Śledź PANDORE w czasie rzeczywistym z AllMySat

Download on the App Store